OpenBCM V2.0.2 (Linux)

Packet Radio Mailbox

IZ3LSV

[San Dona' di P. JN]

 Login: GUEST





  
LU9DCE > KEPS     03.01.18 18:56l 253 Lines 12535 Bytes #999 (0) @ LUNET
BID : 28606_LU9DCE
Read: GUEST
Subj: SAT TLE OF 3
Path: IZ3LSV<IQ2LB<IQ5KG<IK1NHL<CX2SA<XE1FH<LU9DCE
Sent: 180103/1601Z @:LU9DCE.TOR.BA.ARG.SOAM #:28606 [TORTUGUITAS] FBB7.0.8-beta
From: LU9DCE@LU9DCE.TOR.BA.ARG.SOAM
To  : KEPS@LUNET


            __    _  _  ___  ____   ___  ____    ____  ____  ____
           (  )  / )( \/ _ \(    \ / __)(  __)  (  _ \(  _ \/ ___)
           / (_/\) \/ (\__  )) D (( (__  ) _)    ) _ ( ) _ (\___ \
           \____/\____/(___/(____/ \___)(____)  (____/(____/(____/
               ESTACION DE PACKET RADIO - BUENOS AIRES (GF05OM)
                   BOLETINES INFORMATIVOS PROGRAMADOS (BIP)
                    LU9DCE@GMX.COM - RF 147070 @ 1200 BAUD
                        https://lu9dce.wordpress.com/
                      telnet lu9dce.dynv6.net port 6300

+------------------------------------------------------------------------------+
OSCAR 7
1 07530U 74089B   18002.90453884 -.00000042  00000-0  16663-4 0  9998
2 07530 101.6625 332.8710 0011878 296.5949 129.9902 12.53630541973888
OSCAR 11 (UoSAT 2)
1 14781U 84021B   18003.16434590  .00000105  00000-0  19117-4 0  9999
2 14781  97.6718  46.2166 0007069 263.1376  96.9034 14.82970740819984
OSCAR 19 (LUSAT)
1 20442U 90005G   18003.41618815 -.00000002  00000-0  15377-4 0  9992
2 20442  98.5954 303.0607 0010662 277.8686  82.1288 14.32883041460296
KITSAT B
1 22825U 93061C   18002.88522664 -.00000016  00000-0  11569-4 0  9994
2 22825  98.8410 336.2051 0009421 106.5903 253.6314 14.30018188265945
POSAT 1
1 22826U 93061D   18003.49989021 -.00000004  00000-0  15995-4 0  9991
2 22826  98.8353 336.8874 0009989  96.0241 264.2079 14.30348898266219
RADIO ROSTO
1 23439U 94085A   18002.92440780 -.00000044 +00000-0 -38674-4 0  9994
2 23439 064.8155 256.1147 0162545 211.3470 226.9065 11.27566237947931
JAS 2
1 24278U 96046B   18002.59344278 -.00000034 +00000-0 +74934-6 0  9992
2 24278 098.5321 224.0171 0350360 180.3333 179.7625 13.53080703055599
TECHSAT 1B
1 25397U 98043D   18002.86839898 -.00000022 +00000-0 +92584-5 0  9998
2 25397 098.6332 306.1965 0002139 115.6823 244.4577 14.23637166011981
ISS (ZARYA)
1 25544U 98067A   18003.41048067  .00002082  00000-0  38524-4 0  9990
2 25544  51.6407 120.1684 0002800 332.9362 100.9190 15.54251816 92891
PCSAT
1 26931U 01043C   18002.93236587 -.00000023 +00000-0 +23012-4 0  9991
2 26931 067.0520 295.8139 0005196 274.5793 085.4715 14.30489370848849
SAUDISAT 1C
1 27607U 02058C   18002.89602422 +.00000016 +00000-0 +22887-4 0  9999
2 27607 064.5545 235.2470 0045041 010.4295 349.7730 14.75408844808443
CUTE-1
1 27844U 03031E   18002.96836424 +.00000058 +00000-0 +45986-4 0  9994
2 27844 098.6884 014.0536 0010620 126.3325 233.8835 14.22086409752675
CUBESAT XI 4
1 27848U 03031J   18002.95228753 +.00000043 +00000-0 +39426-4 0  9993
2 27848 098.6973 014.3773 0010410 135.4791 224.7224 14.21694305752556
MOZHAYETS 4
1 27939U 03042A   18003.55595233  .00000112  00000-0  28628-4 0  9992
2 27939  97.9652 147.2014 0011943 314.6154 113.8177 14.66645702762689
CUBESAT XI 5
1 28895U 05043F   18002.89099972  .00000151  00000-0  37837-4 0  9997
2 28895  97.8851 161.2769 0015882 228.9911 130.9920 14.63493786649699
CUTE-1.7+APD II
1 32785U 08021C   18002.83385032  .00000232  00000-0  30862-4 0  9999
2 32785  97.5542  22.8548 0012078 221.8983 138.1311 14.88039456524589
DELFI C3
1 32789U 08021G   18002.72011982  .00001290  00000-0  93451-4 0  9999
2 32789  97.5349  61.5638 0013598 138.4278 221.7985 15.05641952526887
SEEDS
1 32791U 08021J   18002.65313226  .00000318  00000-0  37968-4 0  9991
2 32791  97.5475  27.6334 0012804 203.7532 156.3097 14.90435793524853
YUBELEINY
1 32953U 08025A   18003.28762842  .00000016  00000-0  41952-4 0  9990
2 32953  82.5039 115.2377 0019210 206.6141 153.3955 12.43080716436286
PRISM (HITOMI)
1 33493U 09002B   18003.50880455  .00000419  00000-0  42971-4 0  9991
2 33493  98.1457 259.1377 0016026 136.9452 223.3030 14.96020968485721
KKS-1 (KISEKI)
1 33499U 09002H   18002.89406610 +.00000134 +00000-0 +27858-4 0  9996
2 33499 098.3454 179.3663 0010441 098.1484 262.0909 14.75280610480387
SWISSCUBE
1 35932U 09051B   18003.38269850  .00000129  00000-0  40085-4 0  9993
2 35932  98.5210 150.8213 0007534   4.7336 355.3931 14.56106892439457
BEESAT
1 35933U 09051C   18002.94101129 +.00000117 +00000-0 +37435-4 0  9991
2 35933 098.5249 151.8105 0006067 021.9501 338.1955 14.56216103439414
ITUPSAT 1
1 35935U 09051E   18003.45277081  .00000073  00000-0  27831-4 0  9991
2 35935  98.5360 152.5880 0008197  11.7705 348.3682 14.55399731439369
XIWANG-1 (HOPE-1)
1 36122U 09072B   18002.92961129 -.00000016 +00000-0 +68756-4 0  9996
2 36122 100.0858 025.2338 0008000 131.2532 228.9272 13.16342884386803
TISAT 1
1 36799U 10035E   18003.12989383  .00000351  00000-0  41849-4 0  9997
2 36799  98.0839 135.2403 0012989  35.9651 324.2438 14.90657978405561
JUGNU
1 37839U 11058B   18003.20442693  .00000315  00000-0  25718-4 0  9993
2 37839  19.9623 317.6667 0018868 227.6116 255.3346 14.12605714322011
SRMSAT
1 37841U 11058D   18002.35188917  .00000299  00000-0  19081-4 0  9994
2 37841  19.9734   8.6173 0012059 108.7520  21.0870 14.10595402321435
M-CUBED/EXP-1 PRIME
1 37855U 11061F   18003.17792719  .00000484  00000-0  33310-4 0  9992
2 37855 101.7205 341.2958 0177873 210.3386 148.7435 15.03958844336847
HORYU 2
1 38340U 12025D   18002.94878724 +.00000223 +00000-0 +40866-4 0  9993
2 38340 098.3749 018.9196 0012004 022.5744 337.5990 14.75477658292334
STRAND 1
1 39090U 13009E   18003.13901606  .00000053  00000-0  33926-4 0  9997
2 39090  98.5342 211.5148 0010258  69.6173 290.6114 14.35005035254150
BEESAT 3
1 39134U 13015E   18003.20425036  .00001330  00000-0  72922-4 0  9997
2 39134  64.8643 300.4035 0029556 231.9435 127.9025 15.18687640259842
SOMP
1 39135U 13015F   18003.22428810  .00001314  00000-0  77008-4 0  9995
2 39135  64.8699 311.5916 0030468 256.1795 103.5940 15.16293181259631
BEESAT 2
1 39136U 13015G   18002.93904671 +.00001150 +00000-0 +69594-4 0  9996
2 39136 064.8705 314.8592 0031997 254.3363 105.4231 15.15779227259155
CUBEBUG 1
1 39153U 13018D   18003.18096822  .00000240  00000-0  38344-4 0  9994
2 39153  97.9828  99.4064 0018252 119.1234 241.1808 14.80318606253187
ZACUBE
1 39417U 13066B   18002.63752118 +.00000249 +00000-0 +37971-4 0  9990
2 39417 097.6065 039.9508 0058562 338.6732 021.2041 14.80853148222290
TRITON 1
1 39427U 13066M   18003.51352338  .00000222  00000-0  43099-4 0  9998
2 39427  97.6363  10.4239 0115502  67.2832 294.0534 14.67591549220420
GOMX 1
1 39430U 13066Q   18003.50790476  .00000190  00000-0  42963-4 0  9993
2 39430  97.6799 352.4294 0152724 130.1053 231.3650 14.58999143219141
HUMSAT D
1 39433U 13066T   18003.16887990  .00000594  00000-0  64115-4 0  9997
2 39433  97.6282  65.1281 0029572 271.8546  87.9286 14.91707686223825
50 SAT
1 39436U 13066W   18003.40243271  .00052832  00000-0  80459-3 0  9995
2 39436  97.7133 126.3272 0005576  73.9895 286.1971 15.54326890227541
CUBEBUG 2
1 39440U 13066AA  18002.95806522 +.00000266 +00000-0 +44081-4 0  9999
2 39440 097.6118 027.9287 0080870 013.1132 347.2155 14.75590982220352
FUNCUBE 1
1 39444U 13066AE  18002.65180651  .00000292  00000-0  42732-4 0  9998
2 39444  97.6078  41.2770 0057602 334.6100  25.2285 14.81614541221140
UWE-3
1 39446U 13066AG  18002.65444482  .00000236  00000-0  38287-4 0  9993
2 39446  97.6079  33.4598 0070142 356.7538   3.3209 14.78123793220667
SPROUT
1 39770U 14029E   18003.49996111  .00000611  00000-0  74988-4 0  9992
2 39770  97.8759 106.0059 0009942  37.9041 322.2880 14.86613531195897
UNISAT 6
1 40012U 14033C   18002.89296744  .00000222  00000-0  40712-4 0  9992
2 40012  97.8306 245.0466 0058932  12.8856 347.3842 14.73745584190353
DUCHIFAT 1
1 40021U 14033M   18002.81539343  .00000393  00000-0  46423-4 0  9993
2 40021  97.9175 281.2374 0013354   9.8264 350.3212 14.90158022192324
QB50P1
1 40025U 14033R   18003.53651452  .00000269  00000-0  34905-4 0  9997
2 40025  97.9092 279.2407 0012868  13.0372 347.1175 14.88609205192295
CHUBUSAT 1
1 40300U 14070C   18003.46457469  .00000853  00000-0  40954-4 0  9998
2 40300  97.3814  84.5794 0021904 117.3548 297.8683 15.21326765175232
NUDT-PHONESAT
1 40900U 15049B   18003.04130774  .00002549  00000-0  11924-3 0  9990
2 40900  97.4419  13.2787 0012138 244.3469 115.6513 15.20616353126816
ZDPS 2A
1 40901U 15049C   18003.49646814  .00000848  00000-0  46533-4 0  9992
2 40901  97.4584  12.4596 0012292 247.8997 112.0932 15.16779171126699
ZDPS 2B
1 40902U 15049D   18003.18471794  .00000914  00000-0  50160-4 0  9997
2 40902  97.4469  10.4566 0012380 245.8974 114.0965 15.16590727126638
XW-2A
1 40903U 15049E   18003.47733824  .00001975  00000-0  51796-4 0  9999
2 40903  97.4030  36.5788 0012708 263.7622  96.2176 15.39850494128453
KAITUO 1A
1 40904U 15049F   18003.48884664  .00000845  00000-0  48912-4 0  9991
2 40904  97.4563  10.1988 0013156 247.9990 264.6484 15.14837719126566
OBJECT G
1 40905U 15049G   18003.50274461  .00000398  00000-0  25602-4 0  9997
2 40905  97.4548   8.5691 0014476 237.5391 122.4442 15.13819734126503
XW-2C
1 40906U 15049H   18003.46939384  .00000651  00000-0  38408-4 0  9995
2 40906  97.4574  10.0364 0013707 237.7751 122.2153 15.14958293126553
XW-2D
1 40907U 15049J   18003.50335333  .00000688  00000-0  40221-4 0  9991
2 40907  97.4545   9.7898 0013111 235.1942 124.8057 15.15092219126562
LILACSAT 2
1 40908U 15049K   18003.18466530  .00000376  00000-0  24678-4 0  9992
2 40908  97.4652   9.0413 0014717 236.9044 123.0775 15.13372484126418
XW-2F
1 40910U 15049M   18003.50921855  .00001041  00000-0  57295-4 0  9998
2 40910  97.4556  10.8155 0013928 231.6974 128.3007 15.16171324126491
XW-2B
1 40911U 15049N   18003.51512403  .00000686  00000-0  40173-4 0  9996
2 40911  97.4585  10.2727 0013024 235.6323 124.3678 15.15042708126461
